Helicity
244 331 352 373 413 495 499 376 279 344 276 200 163 142 126 140 139 131 142 157 156 164
399 447 489 538 488 540 377 219 309 338 257 135 222 123 118 117 122 133 147 155 150 161
415 482 500 505 547 429 487 332 281 189 207 170 185 155 135 118 114 139 142 143 158 153
554 655 727 598 461 411 453 326 154 275 168 156 139 130 119 108 108 119 132 133 143 144
729 625 531 443 581 162 182 348 224 197 159 144 114 91 111 110 135 135 129 135 156 155
665 628 366 349 406 361 169 261 223 189 195 122 124 130 134 147 149 134 126 150 162 150
542 366 405 346 265 338 389 255 201 177 147 135 112 140 160 170 167 166 173 182 186 182
495 498 518 436 459 420 243 243 150 112 131 108 148 162 145 142 136 150 167 181 185 184
557 560 464 373 458 375 204 148 99 91 122 154 161 131 108 121 135 147 163 163 173 159
512 547 560 623 255 120 94 64 70 105 156 148 150 126 111 104 153 168 159 162 164 153
632 655 505 138 41 103 66 54 108 140 141 160 160 132 115 122 172 170 160 154 155 148
689 433 69 101 109 62 77 104 130 155 153 174 163 145 135 163 194 176 152 155 150 131
113 108 171 139 112 76 93 114 137 140 169 172 178 152 130 170 226 190 164 135 123 111
144 129 112 93 86 92 97 128 146 168 189 194 180 163 128 142 223 176 171 155 134 142
Wind_Speed
12 15 17 18 18 24 26 28 35 40 45 48 51 57 60 65 67 67 65 66 64 64
13 15 20 23 21 22 26 28 41 46 55 53 58 62 65 69 71 67 66 67 66 67
12 16 15 16 23 32 31 43 54 52 52 57 65 65 66 66 66 67 69 70 69 68
15 15 23 28 33 34 40 55 46 54 55 61 63 64 65 68 67 69 71 68 64 65
18 25 32 35 40 42 43 47 47 54 57 64 66 63 64 66 65 66 69 65 61 62
24 31 34 34 39 42 40 44 51 54 61 65 62 61 61 62 63 61 64 62 62 63
30 32 33 33 33 36 45 50 51 59 61 60 57 59 60 61 63 65 63 62 64 60
29 29 30 32 42 47 47 49 59 55 54 54 57 57 60 62 66 66 65 62 58 50
27 30 39 44 46 44 51 57 50 52 54 57 57 56 59 61 67 63 60 58 53 49
30 37 42 45 50 52 54 52 53 55 53 56 56 57 59 62 62 57 55 52 49 47
38 43 47 50 50 52 52 55 56 53 53 58 60 60 61 60 56 53 50 45 44 43
50 55 49 52 54 55 56 56 55 55 56 59 61 60 59 56 51 50 47 42 41 42
53 46 50 54 55 54 54 56 56 59 57 56 58 58 59 51 47 48 45 39 40 40
45 48 51 53 52 56 59 60 61 61 58 55 54 57 55 48 46 44 41 40 40 36
Wind_Direction
320 326 332 334 336 342 347 353 357 352 348 342 339 338 336 334 334 334 334 333 332 330
352 351 351 356 3 16 360 341 342 340 337 335 336 335 334 333 332 333 332 331 331 329
339 345 349 341 335 326 335 327 329 333 334 333 332 333 334 334 333 331 330 329 329 329
341 352 351 339 332 333 330 328 333 332 333 333 333 333 332 331 331 330 331 331 332 332
353 334 330 332 332 329 326 332 332 330 333 332 331 331 331 330 331 332 331 331 332 332
338 332 328 330 332 331 328 333 332 331 330 331 331 331 332 332 333 333 332 332 331 331
327 329 331 330 335 338 333 331 330 330 330 331 333 333 332 332 332 331 331 332 331 333
337 344 345 338 336 332 331 332 330 329 332 333 333 333 332 332 330 329 329 330 333 336
341 340 336 334 335 336 332 329 331 332 331 330 332 333 334 333 332 331 332 333 335 336
338 338 338 339 333 327 328 333 331 330 331 331 332 333 333 333 334 333 332 333 335 336
342 339 335 329 331 332 332 329 330 330 330 331 331 332 332 332 333 333 332 332 334 335
337 331 331 331 331 330 330 330 330 331 330 330 331 333 333 333 332 332 332 330 331 333
332 335 333 332 332 333 332 331 331 330 330 330 332 334 334 333 332 331 331 330 329 332
336 335 335 334 333 332 331 330 329 328 329 330 331 333 335 332 330 328 328 327 328 330